Location: Hurecourt
(47.9030°N, 6.0653°E)
Time: 10:55:19
(UTC+00:00)

Meteor 1-25 Rocket - Pass Details

Date: 14 July 2020
Orbit: 837 x 891 km, 81.2° (Epoch: 05 August)

Event Time Altitude Azimuth Distance (km) Brightness Sun altitude
Exits shadow 00:47:42 34° 200° (SSW) 1,356 4.7 -18.9°
Maximum altitude 00:50:13 79° 282° (WNW) 864 4.2 -18.8°
Drops below altitude 10° 00:55:49 10° 9° (N) 2,466 7.9 -18.5°
Sets 00:58:14 0° 11° (N) 3,403 9.0 -18.4°
